Regional Weather Roundup
Issued by NWS

Home | Current Version | Previous Version | Text Only | Print | Product List | Glossary Off
Versions: 1 2 3 4 5 6 7 8 9 10 11 12 13 14 15 16 17 18 19 20 21 22 23 24 25 26 27 28 29 30 31 32 33 34 35 36 37 38 39 40 41 42 43 44 45 46 47 48 49 50

000
ASUS45 KTFX 290319
RWRMT
MONTANA HOURLY WEATHER ROUNDUP
NATIONAL WEATHER SERVICE GREAT FALLS MT
919 PM MDT MON JUL 28 2014

NOTE: "FAIR" INDICATES FEW OR NO CLOUDS BELOW 12000 FEET WITH NO
SIGNIFICANT WEATHER AND/OR OBSTRUCTIONS TO VISIBILITY.

* THESE STATIONS ARE NOT UNDER NWS QUALITY CONTROL. THEY DO NOT
   REPORT WEATHER SUCH AS PRECIPITATION OR FOG.

MTZ001>007-043-290400-
WEST OF THE DIVIDE
CITY           SKY/WX    TMP DP  RH WIND       PRES   REMARKS
KALISPELL      CLEAR     77  57  50 W3        30.09S
MISSOULA       PTCLDY    86  39  19 N15G21    30.08S
BUTTE          MOCLDY    75  41  30 S3        30.27S
MULLAN PASS    CLEAR     72  39  30 VRB3      30.32R
* LINCOLN      N/A       80  51  36 NE3        N/A
* LOOKOUT PASS N/A       74  52  46 NE1        N/A
* POLSON       N/A       75  40  28 N/A        N/A
* RONAN APT    CLEAR     81  54  39 N5         N/A
* SEELEY LAKE  N/A       88  44  22 N2G11      N/A
* THOMP F APT  CLEAR     70  38  31 NW5G20     N/A
* YAAK HILL    N/A       86  49  28 N/A        N/A
$$

MTZ008-052>055-290400-
SOUTHWEST MONTANA
CITY           SKY/WX    TMP DP  RH WIND       PRES   REMARKS
BOZEMAN        CLOUDY    73  50  44 SE8       30.19S
DILLON         CLOUDY    75  43  32 S7        30.24F
W YELLOWSTONE  CLOUDY    68  39  35 NE6       30.38R
* THREE FORKS  CLOUDY    81  63  54 N/A        N/A   HI  82
* MONIDA PASS  N/A       66  41  40 NW11       N/A
* RAYNOLDS PAS N/A       67  16  14 N7         N/A
* WHITEHALL    N/A       81  44  27 SE5        N/A
* WISE RIVER   N/A       77  40  27 SW3G11     N/A
$$

MTZ009>010-012-014-046-048-049-054-290400-
EAST SLOPES AND CENTRAL MONTANA
CITY           SKY/WX    TMP DP  RH WIND       PRES   REMARKS
CUT BANK       PTCLDY    81  43  26 E12       30.17R
GREAT FALLS    MOCLDY    81  37  21 N9        30.13R
HELENA         MOCLDY    82  46  28 CALM      30.11S
MALMSTROM AFB  CLOUDY    84  39  20 N9        30.14R
* CONRAD       MOCLDY    79  50  36 N7         N/A
* DEARBORN     N/A       85  40  20 N9G16      N/A
* EAST GLACIER N/A       67  54  63 E2         N/A
* ROGERS PASS  N/A       69  41  36 NW2        N/A
* SAINT MARY   N/A       76  49  39 NE2G9      N/A
* SWEET GRASS  N/A       79  41  26 E11        N/A
* WHITE SULPH  N/A       73  41  32 NE5        N/A
$$

MTZ011-013-016-021-035-040-045-047-050-051-290400-
NORTH CENTRAL MONTANA
CITY           SKY/WX    TMP DP  RH WIND       PRES   REMARKS
HAVRE          MOCLDY    82  43  25 E17       30.12S
LEWISTOWN      MOCLDY    81  39  22 E12       30.20S
* FORT BENTON  CLOUDY    88  43  21 E8G17     30.11R
* CHESTER      N/A       83  41  23 E11G18     N/A
* DENTON       N/A       80  41  25 E11        N/A
* GEYSER       N/A       78  41  27 SE11G16    N/A
* JUDITH GAP   N/A       77  44  31 E7         N/A
* LOMA         N/A       87  41  20 E10G17     N/A
$$

MTZ017>020-022>027-061-062-290400-
NORTHEAST MONTANA
CITY           SKY/WX    TMP DP  RH WIND       PRES   REMARKS
GLASGOW        PTCLDY    75  50  42 E10       30.18R
GLENDIVE       PTCLDY    73  52  48 E8        30.22R
JORDAN         MOCLDY    81  45  28 E8        30.19R
SIDNEY         PTCLDY    72  52  49 CALM      30.22R
WOLF POINT     PTCLDY    75  46  36 NE5       30.19R
* BEAVER HILL  N/A       68  54  61 E9         N/A
* CIRCLE       N/A       75  52  45 NE3        N/A
* LINDSAY DVD  N/A       69  51  53 NE5        N/A
$$

MTZ028>042-056>058-290400-
SOUTHCENTRAL AND SOUTHEAST MONTANA
CITY           SKY/WX    TMP DP  RH WIND       PRES   REMARKS
BAKER          CLEAR     68  54  61 SE7       30.25R
BILLINGS       CLOUDY    81  46  29 E12       30.17S
LIVINGSTON     CLOUDY    81  39  22 SE13      30.20F
MILES CITY     PTCLDY    75  45  34 NE10      30.18S
* LAUREL APT   CLOUDY    82  45  27 N10G17     N/A
* ROUNDUP APT  CLOUDY    81  41  24 N/A        N/A
* ALZADA       N/A       74  51  45 NE7G12     N/A
* HYSHAM       N/A       79  43  28 E9G15      N/A
* LAME DEER    N/A       75  43  32 NE9        N/A
* REED POINT   N/A       81  50  34 S4         N/A
* ROSCOE HILL  N/A       74  44  34 S7         N/A
$$

REGIONAL REPORTS...DAKOTAS
CITY           SKY/WX    TMP DP  RH WIND       PRES   REMARKS
WILLISTON      CLEAR     72  52  49 E6        30.21R
DICKINSON      CLEAR     63  55  75 E8        30.24R
CROSBY         N/A       61  61 100 E5        30.23R
TIOGA          MOCLDY    61  61 100 E5        30.26S
WATFORD CITY   CLEAR     63  55  75 SE6       30.20S
BISMARCK       CLEAR     61  54  78 SE3       30.24R
GRAND FORKS    CLEAR     61  57  87 W3        30.18S
FARGO          PTCLDY    64  54  70 N5        30.18S
BUFFALO SD     CLEAR     66  54  65 E10       30.19R
RAPID CITY     CLEAR     68  52  57 E14       30.24R
$$

REGIONAL REPORTS...WYOMING/IDAHO/WASHINGTON
CITY           SKY/WX    TMP DP  RH WIND       PRES   REMARKS
GILLETTE       PTCLDY    73  50  44 E9        30.24R
SHERIDAN       PTCLDY    73  48  41 CALM      30.20R
YELLOWSTONE LA CLOUDY    63  39  41 VRB3      30.49S
SALMON         MOCLDY    77  46  33 S5        30.12S
MULLAN PASS    CLEAR     72  39  30 VRB3      30.32S
SAND POINT     CLEAR     70  54  57 CALM      30.04R
SPOKANE        FAIR      93  37  14 E5        30.03S
$$

REGIONAL REPORTS...ALBERTA
CITY           SKY/WX    TMP DP  RH WIND       PRES   REMARKS
CALGARY        FAIR      75  54  48 S12G17    30.17S
LETHBRIDGE     FAIR      75  59  58 E7        30.15S
MEDICINE HAT   PTCLDY    81  50  34 N7        30.13R
EDMONTON       FAIR      73  64  74 E8        30.14S
WATERTON GATE  N/A       70  55  59 SW1        N/A
CARDSTON       N/A       75  61  62 CALM       N/A
MILK RIVER     N/A       72  46  40 E10        N/A
$$

REGIONAL REPORTS...SASKATCHEWAN
CITY           SKY/WX    TMP DP  RH WIND       PRES   REMARKS
SWIFT CURRENT  FAIR      70  55  59 E12       30.22S
REGINA         FAIR      70  59  68 SE6       30.22R
VAL MARIE      N/A       63  55  75 E7         N/A
ASSINIBOIA     N/A       68  57  68 E5         N/A
CORONACH       N/A       59  50  72 NW3        N/A

$$




USA.gov is the U.S. government's official web portal to all federal, state and local government web resources and services.